Time,TemperatureF,DewpointF,PressureIn,WindDirection,WindDirectionDegrees,WindSpeedMPH,WindSpeedGustMPH,Humidity,HourlyPrecipIn,Conditions,Clouds,dailyrainin,SoftwareType,DateUTC
2013-11-15 00:02:00,45.7,28.6,29.99,SW,225,7.2,10.7,51,0.00,,,0.00,WUHU216HW,2013-11-15 06:02:00,
2013-11-15 00:07:00,45.7,28.6,29.99,SSW,203,8.7,8.7,51,0.00,,,0.00,WUHU216HW,2013-11-15 06:07:00,
2013-11-15 00:12:00,45.7,29.1,29.99,SSW,203,6.3,10.5,52,0.00,,,0.00,WUHU216HW,2013-11-15 06:12:00,
2013-11-15 00:17:00,45.5,28.9,29.99,SW,225,6.9,10.5,52,0.00,,,0.00,WUHU216HW,2013-11-15 06:17:00,
2013-11-15 00:22:00,45.5,28.9,29.99,SW,225,5.4,11.4,52,0.00,,,0.00,WUHU216HW,2013-11-15 06:22:00,
2013-11-15 00:27:00,45.4,28.7,29.99,SW,225,3.8,11.4,52,0.00,,,0.00,WUHU216HW,2013-11-15 06:27:00,
2013-11-15 00:32:00,45.4,29.2,29.99,SW,225,2.9,7.6,53,0.00,,,0.00,WUHU216HW,2013-11-15 06:32:00,
2013-11-15 00:37:00,45.4,29.2,29.99,SW,225,5.4,5.4,53,0.00,,,0.00,WUHU216HW,2013-11-15 06:37:00,
2013-11-15 00:42:00,45.5,28.9,29.99,SSW,203,8.1,8.1,52,0.00,,,0.00,WUHU216HW,2013-11-15 06:42:00,
2013-11-15 00:47:00,45.4,28.7,29.99,SSW,203,4.7,8.1,52,0.00,,,0.00,WUHU216HW,2013-11-15 06:47:00,
2013-11-15 00:52:00,45.4,28.7,29.99,SSW,203,7.6,7.6,52,0.00,,,0.00,WUHU216HW,2013-11-15 06:52:00,
2013-11-15 00:57:00,45.4,28.7,29.99,SSW,203,6.3,7.6,52,0.00,,,0.00,WUHU216HW,2013-11-15 06:57:00,
2013-11-15 01:02:00,45.2,28.5,29.99,SSW,203,4.5,6.9,52,0.00,,,0.00,WUHU216HW,2013-11-15 07:02:00,
2013-11-15 01:07:00,45.0,28.9,29.98,South,180,2.9,6.9,53,0.00,,,0.00,WUHU216HW,2013-11-15 07:07:00,
2013-11-15 01:12:00,45.0,28.9,29.98,SW,225,3.4,5.8,53,0.00,,,0.00,WUHU216HW,2013-11-15 07:12:00,
2013-11-15 01:17:00,44.8,28.7,29.98,SSW,203,3.4,5.4,53,0.00,,,0.00,WUHU216HW,2013-11-15 07:17:00,
2013-11-15 01:22:00,44.8,28.7,29.98,WSW,248,4.0,5.4,53,0.00,,,0.00,WUHU216HW,2013-11-15 07:22:00,
2013-11-15 01:27:00,44.6,28.5,29.98,South,180,5.8,7.4,53,0.00,,,0.00,WUHU216HW,2013-11-15 07:27:00,
2013-11-15 01:32:00,44.6,28.5,29.98,WSW,248,6.9,7.4,53,0.00,,,0.00,WUHU216HW,2013-11-15 07:32:00,
2013-11-15 01:37:00,44.5,28.4,29.98,SSW,203,5.1,7.2,53,0.00,,,0.00,WUHU216HW,2013-11-15 07:37:00,
2013-11-15 01:42:00,44.5,28.4,29.98,SSW,203,3.4,6.5,53,0.00,,,0.00,WUHU216HW,2013-11-15 07:42:00,
2013-11-15 01:47:00,44.5,28.4,29.98,SSW,203,3.4,6.5,53,0.00,,,0.00,WUHU216HW,2013-11-15 07:47:00,
2013-11-15 01:52:00,44.5,28.4,29.98,South,180,4.9,6.9,53,0.00,,,0.00,WUHU216HW,2013-11-15 07:52:00,
2013-11-15 01:57:00,44.5,28.4,29.98,SSW,203,3.8,6.9,53,0.00,,,0.00,WUHU216HW,2013-11-15 07:57:00,
2013-11-15 02:02:00,44.5,28.4,29.98,SW,225,3.8,5.4,53,0.00,,,0.00,WUHU216HW,2013-11-15 08:02:00,
2013-11-15 02:07:00,44.5,28.4,29.98,SW,225,4.0,5.4,53,0.00,,,0.00,WUHU216HW,2013-11-15 08:07:00,
2013-11-15 02:12:00,44.5,28.4,29.98,SSW,203,7.4,7.4,53,0.00,,,0.00,WUHU216HW,2013-11-15 08:12:00,
2013-11-15 02:16:00,44.6,28.5,29.98,WSW,248,7.2,7.4,53,0.00,,,0.00,WUHU216HW,2013-11-15 08:16:00,
2013-11-15 02:21:00,44.6,28.5,29.98,SSW,203,6.3,7.2,53,0.00,,,0.00,WUHU216HW,2013-11-15 08:21:00,
2013-11-15 02:26:00,44.8,28.7,29.98,SW,225,4.5,6.5,53,0.00,,,0.00,WUHU216HW,2013-11-15 08:26:00,
2013-11-15 02:31:00,44.8,28.7,29.98,SW,225,6.7,6.9,53,0.00,,,0.00,WUHU216HW,2013-11-15 08:31:00,
2013-11-15 02:36:00,45.0,28.9,29.98,SSW,203,5.4,9.6,53,0.00,,,0.00,WUHU216HW,2013-11-15 08:36:00,
2013-11-15 02:41:00,45.0,28.9,29.98,SSW,203,7.6,9.6,53,0.00,,,0.00,WUHU216HW,2013-11-15 08:41:00,
2013-11-15 02:46:00,45.0,29.4,29.97,SW,225,8.1,8.1,54,0.00,,,0.00,WUHU216HW,2013-11-15 08:46:00,
2013-11-15 02:51:00,45.0,29.4,29.97,SSW,203,4.0,8.1,54,0.00,,,0.00,WUHU216HW,2013-11-15 08:51:00,
2013-11-15 02:56:00,45.0,29.4,29.97,SW,225,4.3,9.2,54,0.00,,,0.00,WUHU216HW,2013-11-15 08:56:00,
2013-11-15 03:01:00,45.0,29.4,29.97,SW,225,5.6,9.2,54,0.00,,,0.00,WUHU216HW,2013-11-15 09:01:00,
2013-11-15 03:06:00,44.8,29.2,29.97,SW,225,4.7,5.6,54,0.00,,,0.00,WUHU216HW,2013-11-15 09:06:00,
2013-11-15 03:11:00,45.0,29.4,29.97,SSW,203,7.6,7.6,54,0.00,,,0.00,WUHU216HW,2013-11-15 09:11:00,
2013-11-15 03:16:00,45.0,29.4,29.97,WSW,248,3.4,7.6,54,0.00,,,0.00,WUHU216HW,2013-11-15 09:16:00,
2013-11-15 03:21:00,45.0,29.4,29.97,SW,225,4.0,5.6,54,0.00,,,0.00,WUHU216HW,2013-11-15 09:21:00,
2013-11-15 03:26:00,45.0,29.4,29.97,SW,225,4.0,7.4,54,0.00,,,0.00,WUHU216HW,2013-11-15 09:26:00,
2013-11-15 03:31:00,45.0,29.8,29.97,SSW,203,1.8,7.4,55,0.00,,,0.00,WUHU216HW,2013-11-15 09:31:00,
2013-11-15 03:36:00,45.0,29.8,29.96,SW,225,1.8,7.6,55,0.00,,,0.00,WUHU216HW,2013-11-15 09:36:00,
2013-11-15 03:41:00,45.0,29.8,29.97,SSW,203,2.7,7.6,55,0.00,,,0.00,WUHU216HW,2013-11-15 09:41:00,
2013-11-15 03:46:00,45.0,29.8,29.97,SW,225,5.4,5.4,55,0.00,,,0.00,WUHU216HW,2013-11-15 09:46:00,
2013-11-15 03:51:00,45.0,29.8,29.97,SSW,203,1.8,5.4,55,0.00,,,0.00,WUHU216HW,2013-11-15 09:51:00,
2013-11-15 03:56:00,45.0,29.8,29.97,SSW,203,1.1,4.9,55,0.00,,,0.00,WUHU216HW,2013-11-15 09:56:00,
2013-11-15 04:01:00,45.0,29.8,29.97,SW,225,2.0,4.9,55,0.00,,,0.00,WUHU216HW,2013-11-15 10:01:00,
2013-11-15 04:06:00,45.0,29.8,29.97,SW,225,4.7,4.7,55,0.00,,,0.00,WUHU216HW,2013-11-15 10:06:00,
2013-11-15 04:11:00,45.0,30.3,29.97,SSW,203,3.1,4.7,56,0.00,,,0.00,WUHU216HW,2013-11-15 10:11:00,
2013-11-15 04:16:00,45.0,29.8,29.97,South,180,3.4,4.3,55,0.00,,,0.00,WUHU216HW,2013-11-15 10:16:00,
2013-11-15 04:21:00,45.0,29.8,29.97,SW,225,3.8,4.3,55,0.00,,,0.00,WUHU216HW,2013-11-15 10:21:00,
2013-11-15 04:26:00,45.0,30.3,29.97,SW,225,3.4,4.0,56,0.00,,,0.00,WUHU216HW,2013-11-15 10:26:00,
2013-11-15 04:31:00,44.8,30.1,29.97,SSW,203,1.8,4.3,56,0.00,,,0.00,WUHU216HW,2013-11-15 10:31:00,
2013-11-15 04:36:00,44.8,29.6,29.97,SSW,203,2.5,4.3,55,0.00,,,0.00,WUHU216HW,2013-11-15 10:36:00,
2013-11-15 04:41:00,44.6,29.9,29.97,SSW,203,1.3,3.8,56,0.00,,,0.00,WUHU216HW,2013-11-15 10:41:00,
2013-11-15 04:46:00,44.6,29.9,29.97,South,180,1.8,2.0,56,0.00,,,0.00,WUHU216HW,2013-11-15 10:46:00,
2013-11-15 04:51:00,44.6,29.9,29.98,SSW,203,3.8,3.8,56,0.00,,,0.00,WUHU216HW,2013-11-15 10:51:00,
2013-11-15 04:56:00,44.5,30.2,29.98,SSW,203,1.1,3.8,57,0.00,,,0.00,WUHU216HW,2013-11-15 10:56:00,
2013-11-15 05:01:00,44.5,30.2,29.98,South,180,1.6,1.8,57,0.00,,,0.00,WUHU216HW,2013-11-15 11:01:00,
2013-11-15 05:06:00,44.3,30.0,29.98,South,180,1.8,1.8,57,0.00,,,0.00,WUHU216HW,2013-11-15 11:06:00,
2013-11-15 05:11:00,44.3,30.0,29.98,South,180,2.2,2.5,57,0.00,,,0.00,WUHU216HW,2013-11-15 11:11:00,
2013-11-15 05:16:00,44.3,30.4,29.97,SSW,203,1.1,2.5,58,0.00,,,0.00,WUHU216HW,2013-11-15 11:16:00,
2013-11-15 05:21:00,44.1,29.8,29.97,SSW,203,1.6,2.2,57,0.00,,,0.00,WUHU216HW,2013-11-15 11:21:00,
2013-11-15 05:26:00,44.1,29.8,29.97,SW,225,1.1,1.8,57,0.00,,,0.00,WUHU216HW,2013-11-15 11:26:00,
2013-11-15 05:31:00,44.1,30.2,29.97,SSW,203,1.6,1.8,58,0.00,,,0.00,WUHU216HW,2013-11-15 11:31:00,
2013-11-15 05:36:00,43.9,30.1,29.97,SSW,203,0.9,1.8,58,0.00,,,0.00,WUHU216HW,2013-11-15 11:36:00,
2013-11-15 05:41:00,43.9,30.5,29.97,South,180,1.8,2.2,59,0.00,,,0.00,WUHU216HW,2013-11-15 11:41:00,
2013-11-15 05:46:00,43.6,29.7,29.97,SSW,203,1.3,2.2,58,0.00,,,0.00,WUHU216HW,2013-11-15 11:46:00,
2013-11-15 05:51:00,43.4,30.0,29.97,SSW,203,1.8,2.5,59,0.00,,,0.00,WUHU216HW,2013-11-15 11:51:00,
2013-11-15 05:56:00,43.2,30.2,29.97,SSW,203,2.0,2.5,60,0.00,,,0.00,WUHU216HW,2013-11-15 11:56:00,
2013-11-15 06:01:00,43.0,30.1,29.97,SW,225,2.2,2.5,60,0.00,,,0.00,WUHU216HW,2013-11-15 12:01:00,
2013-11-15 06:06:00,42.8,29.9,29.97,SSW,203,1.8,2.5,60,0.00,,,0.00,WUHU216HW,2013-11-15 12:06:00,
2013-11-15 06:11:00,42.8,29.9,29.97,South,180,0.9,1.8,60,0.00,,,0.00,WUHU216HW,2013-11-15 12:11:00,
2013-11-15 06:16:00,42.8,29.9,29.97,South,180,0.7,2.2,60,0.00,,,0.00,WUHU216HW,2013-11-15 12:16:00,
2013-11-15 06:21:00,42.7,29.7,29.97,SSW,203,1.1,2.5,60,0.00,,,0.00,WUHU216HW,2013-11-15 12:21:00,
2013-11-15 06:26:00,42.7,30.2,29.97,SSW,203,1.1,2.5,61,0.00,,,0.00,WUHU216HW,2013-11-15 12:26:00,
2013-11-15 06:31:00,42.5,29.5,29.98,SSW,203,1.3,2.0,60,0.00,,,0.00,WUHU216HW,2013-11-15 12:31:00,
2013-11-15 06:36:00,42.5,29.5,29.97,South,180,1.1,2.0,60,0.00,,,0.00,WUHU216HW,2013-11-15 12:36:00,
2013-11-15 06:41:00,42.1,29.6,29.97,South,180,1.8,2.7,61,0.00,,,0.00,WUHU216HW,2013-11-15 12:41:00,
2013-11-15 06:46:00,41.9,29.9,29.98,South,180,3.4,3.4,62,0.00,,,0.00,WUHU216HW,2013-11-15 12:46:00,
2013-11-15 06:51:00,41.9,29.9,29.98,SSW,203,1.1,3.4,62,0.00,,,0.00,WUHU216HW,2013-11-15 12:51:00,
2013-11-15 06:56:00,41.9,29.9,29.98,South,180,1.6,2.5,62,0.00,,,0.00,WUHU216HW,2013-11-15 12:56:00,
2013-11-15 07:01:00,41.8,29.7,29.97,SW,225,1.6,2.2,62,0.00,,,0.00,WUHU216HW,2013-11-15 13:01:00,
2013-11-15 07:06:00,41.8,29.3,29.97,SSE,158,1.1,2.2,61,0.00,,,0.00,WUHU216HW,2013-11-15 13:06:00,
2013-11-15 07:11:00,41.6,29.2,29.98,South,180,1.6,1.6,61,0.00,,,0.00,WUHU216HW,2013-11-15 13:11:00,
2013-11-15 07:16:00,41.4,29.3,29.98,South,180,0.7,1.8,62,0.00,,,0.00,WUHU216HW,2013-11-15 13:16:00,
2013-11-15 07:21:00,41.4,29.3,29.98,SSW,203,1.8,1.8,62,0.00,,,0.00,WUHU216HW,2013-11-15 13:21:00,
2013-11-15 07:26:00,41.4,29.3,29.98,SSW,203,0.4,1.8,62,0.00,,,0.00,WUHU216HW,2013-11-15 13:26:00,
2013-11-15 07:31:00,41.6,29.5,29.98,South,180,1.1,1.1,62,0.00,,,0.00,WUHU216HW,2013-11-15 13:31:00,
2013-11-15 07:36:00,41.6,29.9,29.98,SSW,203,1.3,2.7,63,0.00,,,0.00,WUHU216HW,2013-11-15 13:36:00,
2013-11-15 07:41:00,41.6,29.9,29.98,SW,225,1.1,2.7,63,0.00,,,0.00,WUHU216HW,2013-11-15 13:41:00,
2013-11-15 07:46:00,41.4,30.2,29.98,SSW,203,1.6,1.8,64,0.00,,,0.00,WUHU216HW,2013-11-15 13:46:00,
2013-11-15 07:51:00,41.4,30.5,29.99,SSW,203,2.5,3.8,65,0.00,,,0.00,WUHU216HW,2013-11-15 13:51:00,
2013-11-15 07:56:00,42.1,31.6,29.98,SSW,203,4.0,4.7,66,0.00,,,0.00,WUHU216HW,2013-11-15 13:56:00,
2013-11-15 08:01:00,42.8,32.2,29.98,SW,225,4.3,4.7,66,0.00,,,0.00,WUHU216HW,2013-11-15 14:01:00,
2013-11-15 08:06:00,43.6,32.6,29.98,SSW,203,6.5,7.6,65,0.00,,,0.00,WUHU216HW,2013-11-15 14:06:00,
2013-11-15 08:11:00,44.3,32.5,29.99,SSW,203,4.9,7.6,63,0.00,,,0.00,WUHU216HW,2013-11-15 14:11:00,
2013-11-15 08:16:00,44.8,32.6,29.99,South,180,4.7,9.8,62,0.00,,,0.00,WUHU216HW,2013-11-15 14:16:00,
2013-11-15 08:21:00,45.4,32.7,29.99,SSW,203,6.3,9.8,61,0.00,,,0.00,WUHU216HW,2013-11-15 14:21:00,
2013-11-15 08:26:00,45.9,32.9,29.99,South,180,6.0,8.5,60,0.00,,,0.00,WUHU216HW,2013-11-15 14:26:00,
2013-11-15 08:31:00,46.6,33.0,29.99,South,180,6.9,7.4,59,0.00,,,0.00,WUHU216HW,2013-11-15 14:31:00,
2013-11-15 08:36:00,47.0,33.4,29.99,SSW,203,2.5,6.9,59,0.00,,,0.00,WUHU216HW,2013-11-15 14:36:00,
2013-11-15 08:41:00,47.2,33.6,29.99,SW,225,5.1,8.1,59,0.00,,,0.00,WUHU216HW,2013-11-15 14:41:00,
2013-11-15 08:46:00,47.5,33.5,29.99,South,180,4.3,8.1,58,0.00,,,0.00,WUHU216HW,2013-11-15 14:46:00,
2013-11-15 08:51:00,48.1,34.0,29.98,SW,225,3.4,7.6,58,0.00,,,0.00,WUHU216HW,2013-11-15 14:51:00,
2013-11-15 08:56:00,48.4,33.8,29.98,WSW,248,7.8,8.3,57,0.00,,,0.00,WUHU216HW,2013-11-15 14:56:00,
2013-11-15 09:01:00,49.0,34.4,29.98,SSW,203,4.7,8.3,57,0.00,,,0.00,WUHU216HW,2013-11-15 15:01:00,
2013-11-15 09:06:00,49.5,33.9,29.98,South,180,5.6,11.0,55,0.00,,,0.00,WUHU216HW,2013-11-15 15:06:00,
2013-11-15 09:11:00,49.9,34.7,29.98,South,180,1.8,11.0,56,0.00,,,0.00,WUHU216HW,2013-11-15 15:11:00,
2013-11-15 09:16:00,49.9,34.3,29.98,SW,225,6.7,13.0,55,0.00,,,0.00,WUHU216HW,2013-11-15 15:16:00,
2013-11-15 09:21:00,49.9,33.8,29.98,SW,225,6.7,13.0,54,0.00,,,0.00,WUHU216HW,2013-11-15 15:21:00,
2013-11-15 09:26:00,50.0,34.0,29.98,SW,225,6.3,9.4,54,0.00,,,0.00,WUHU216HW,2013-11-15 15:26:00,
2013-11-15 09:31:00,50.4,34.4,29.98,SSW,203,7.6,9.4,54,0.00,,,0.00,WUHU216HW,2013-11-15 15:31:00,
2013-11-15 09:36:00,50.8,34.7,29.98,SW,225,6.0,9.6,54,0.00,,,0.00,WUHU216HW,2013-11-15 15:36:00,
2013-11-15 09:41:00,50.9,34.4,29.98,SW,225,8.5,9.6,53,0.00,,,0.00,WUHU216HW,2013-11-15 15:41:00,
2013-11-15 09:46:00,51.3,34.8,29.98,SSW,203,3.4,8.7,53,0.00,,,0.00,WUHU216HW,2013-11-15 15:46:00,
2013-11-15 09:51:00,51.8,35.2,29.98,SW,225,3.6,8.5,53,0.00,,,0.00,WUHU216HW,2013-11-15 15:51:00,
2013-11-15 09:56:00,52.2,34.7,29.98,SW,225,8.1,8.7,51,0.00,,,0.00,WUHU216HW,2013-11-15 15:56:00,
2013-11-15 10:01:00,52.2,35.1,29.98,SW,225,6.3,9.2,52,0.00,,,0.00,WUHU216HW,2013-11-15 16:01:00,
2013-11-15 10:06:00,52.2,34.7,29.98,SW,225,6.3,9.2,51,0.00,,,0.00,WUHU216HW,2013-11-15 16:06:00,
2013-11-15 10:11:00,52.7,35.6,29.98,WSW,248,3.1,8.5,52,0.00,,,0.00,WUHU216HW,2013-11-15 16:11:00,
2013-11-15 10:16:00,53.3,35.1,29.98,West,270,5.6,6.9,50,0.00,,,0.00,WUHU216HW,2013-11-15 16:16:00,
2013-11-15 10:21:00,54.2,35.4,29.98,SW,225,6.9,6.9,49,0.00,,,0.00,WUHU216HW,2013-11-15 16:21:00,
2013-11-15 10:26:00,54.7,35.9,29.98,SSW,203,5.6,7.6,49,0.00,,,0.00,WUHU216HW,2013-11-15 16:26:00,
2013-11-15 10:31:00,54.7,35.9,29.98,SW,225,3.4,8.5,49,0.00,,,0.00,WUHU216HW,2013-11-15 16:31:00,
2013-11-15 10:36:00,55.1,35.6,29.98,SSW,203,8.1,8.5,48,0.00,,,0.00,WUHU216HW,2013-11-15 16:36:00,
2013-11-15 10:41:00,55.3,35.3,29.98,South,180,5.1,8.1,47,0.00,,,0.00,WUHU216HW,2013-11-15 16:41:00,
2013-11-15 10:46:00,56.0,36.5,29.97,SSE,158,5.1,7.6,48,0.00,,,0.00,WUHU216HW,2013-11-15 16:46:00,
2013-11-15 10:51:00,56.9,36.8,29.97,SSW,203,5.8,6.9,47,0.00,,,0.00,WUHU216HW,2013-11-15 16:51:00,
2013-11-15 10:56:00,56.9,36.3,29.97,SSW,203,3.4,6.9,46,0.00,,,0.00,WUHU216HW,2013-11-15 16:56:00,
2013-11-15 11:01:00,56.9,36.3,29.97,SW,225,6.3,6.3,46,0.00,,,0.00,WUHU216HW,2013-11-15 17:01:00,
2013-11-15 11:06:00,57.1,36.4,29.96,SSW,203,7.2,7.2,46,0.00,,,0.00,WUHU216HW,2013-11-15 17:06:00,
2013-11-15 11:11:00,58.0,36.6,29.96,South,180,4.9,7.6,45,0.00,,,0.00,WUHU216HW,2013-11-15 17:11:00,
2013-11-15 11:16:00,58.3,37.0,29.96,South,180,4.7,7.6,45,0.00,,,0.00,WUHU216HW,2013-11-15 17:16:00,
2013-11-15 11:21:00,57.4,36.2,29.96,WSW,248,6.9,8.5,45,0.00,,,0.00,WUHU216HW,2013-11-15 17:21:00,
2013-11-15 11:26:00,57.4,36.7,29.96,SW,225,5.4,8.5,46,0.00,,,0.00,WUHU216HW,2013-11-15 17:26:00,
2013-11-15 11:31:00,57.8,37.1,29.96,WSW,248,5.6,7.4,46,0.00,,,0.00,WUHU216HW,2013-11-15 17:31:00,
2013-11-15 11:36:00,58.0,36.6,29.95,SSW,203,8.9,9.4,45,0.00,,,0.00,WUHU216HW,2013-11-15 17:36:00,
2013-11-15 11:41:00,58.0,37.3,29.95,SSW,203,6.9,9.4,46,0.00,,,0.00,WUHU216HW,2013-11-15 17:41:00,
2013-11-15 11:46:00,58.1,36.8,29.95,SSW,203,4.5,7.8,45,0.00,,,0.00,WUHU216HW,2013-11-15 17:46:00,
2013-11-15 11:51:00,58.7,36.7,29.94,SSW,203,6.9,7.8,44,0.00,,,0.00,WUHU216HW,2013-11-15 17:51:00,
2013-11-15 11:56:00,59.0,37.6,29.94,SW,225,4.3,7.8,45,0.00,,,0.00,WUHU216HW,2013-11-15 17:56:00,
2013-11-15 12:01:00,59.0,37.1,29.94,WSW,248,6.7,9.8,44,0.00,,,0.00,WUHU216HW,2013-11-15 18:01:00,
2013-11-15 12:06:00,59.2,37.2,29.93,SSE,158,3.8,9.8,44,0.00,,,0.00,WUHU216HW,2013-11-15 18:06:00,
2013-11-15 12:11:00,59.6,37.5,29.92,South,180,5.1,7.6,44,0.00,,,0.00,WUHU216HW,2013-11-15 18:11:00,
2013-11-15 12:16:00,60.3,37.6,29.92,South,180,5.4,7.6,43,0.00,,,0.00,WUHU216HW,2013-11-15 18:16:00,
2013-11-15 12:21:00,61.0,37.7,29.92,SSW,203,6.3,6.3,42,0.00,,,0.00,WUHU216HW,2013-11-15 18:21:00,
2013-11-15 12:26:00,61.0,37.7,29.91,South,180,5.1,6.9,42,0.00,,,0.00,WUHU216HW,2013-11-15 18:26:00,
2013-11-15 12:31:00,60.1,36.3,29.91,SSW,203,5.6,11.0,41,0.00,,,0.00,WUHU216HW,2013-11-15 18:31:00,
2013-11-15 12:36:00,59.8,37.1,29.91,SSW,203,6.5,12.8,43,0.00,,,0.00,WUHU216HW,2013-11-15 18:36:00,
2013-11-15 12:41:00,59.9,37.3,29.91,ESE,113,8.1,12.8,43,0.00,,,0.00,WUHU216HW,2013-11-15 18:41:00,
2013-11-15 12:46:00,59.0,36.5,29.90,SE,135,8.5,9.4,43,0.00,,,0.00,WUHU216HW,2013-11-15 18:46:00,
2013-11-15 12:51:00,58.3,36.4,29.90,SE,135,6.7,9.8,44,0.00,,,0.00,WUHU216HW,2013-11-15 18:51:00,
2013-11-15 13:01:00,58.0,36.6,29.91,South,180,6.3,6.3,45,0.00,,,0.00,WUHU216HW,2013-11-15 19:01:00,
2013-11-15 13:06:00,57.4,36.7,29.91,SSE,158,8.1,10.5,46,0.00,,,0.00,WUHU216HW,2013-11-15 19:06:00,
2013-11-15 13:11:00,57.6,37.4,29.90,SE,135,4.9,10.5,47,0.00,,,0.00,WUHU216HW,2013-11-15 19:11:00,
2013-11-15 13:17:00,57.4,37.4,29.90,SE,135,8.3,12.8,47,0.00,,,0.00,WUHU216HW,2013-11-15 19:17:00,
2013-11-15 13:22:00,57.6,38.1,29.90,SSE,158,6.9,12.8,48,0.00,,,0.00,WUHU216HW,2013-11-15 19:22:00,
2013-11-15 13:27:00,57.4,37.4,29.90,ESE,113,6.0,9.4,47,0.00,,,0.00,WUHU216HW,2013-11-15 19:27:00,
2013-11-15 13:31:00,57.2,37.2,29.90,South,180,5.8,11.0,47,0.00,,,0.00,WUHU216HW,2013-11-15 19:31:00,
2013-11-15 13:37:00,57.2,37.7,29.90,SSW,203,7.6,11.0,48,0.00,,,0.00,WUHU216HW,2013-11-15 19:37:00,
2013-11-15 13:42:00,57.6,37.4,29.89,South,180,7.6,10.3,47,0.00,,,0.00,WUHU216HW,2013-11-15 19:42:00,
2013-11-15 13:47:00,58.0,37.8,29.89,SSW,203,7.8,8.7,47,0.00,,,0.00,WUHU216HW,2013-11-15 19:47:00,
2013-11-15 13:52:00,58.3,38.2,29.89,SSW,203,3.6,8.9,47,0.00,,,0.00,WUHU216HW,2013-11-15 19:52:00,
2013-11-15 13:57:00,59.0,38.2,29.89,SSW,203,4.7,11.4,46,0.00,,,0.00,WUHU216HW,2013-11-15 19:57:00,
2013-11-15 14:01:00,59.0,38.2,29.89,South,180,6.3,11.4,46,0.00,,,0.00,WUHU216HW,2013-11-15 20:01:00,
2013-11-15 14:06:00,59.4,38.5,29.89,South,180,6.5,8.5,46,0.00,,,0.00,WUHU216HW,2013-11-15 20:06:00,
2013-11-15 14:11:00,59.0,38.2,29.89,SSW,203,8.5,12.3,46,0.00,,,0.00,WUHU216HW,2013-11-15 20:11:00,
2013-11-15 14:17:00,59.2,38.3,29.88,SSW,203,7.6,12.3,46,0.00,,,0.00,WUHU216HW,2013-11-15 20:17:00,
2013-11-15 14:22:00,59.2,38.3,29.88,SSE,158,9.8,12.3,46,0.00,,,0.00,WUHU216HW,2013-11-15 20:22:00,
2013-11-15 14:27:00,58.9,38.6,29.88,WSW,248,8.9,9.8,47,0.00,,,0.00,WUHU216HW,2013-11-15 20:27:00,
2013-11-15 14:32:00,59.2,39.0,29.87,SSE,158,10.1,10.1,47,0.00,,,0.00,WUHU216HW,2013-11-15 20:32:00,
2013-11-15 14:37:00,58.7,38.4,29.87,South,180,9.2,10.1,47,0.00,,,0.00,WUHU216HW,2013-11-15 20:37:00,
2013-11-15 14:42:00,58.5,39.4,29.87,SSE,158,6.0,9.2,49,0.00,,,0.00,WUHU216HW,2013-11-15 20:42:00,
2013-11-15 14:47:00,59.4,39.1,29.87,SSW,203,6.9,11.2,47,0.00,,,0.00,WUHU216HW,2013-11-15 20:47:00,
2013-11-15 14:52:00,59.6,39.2,29.87,South,180,2.2,11.2,47,0.00,,,0.00,WUHU216HW,2013-11-15 20:52:00,
2013-11-15 14:57:00,60.1,39.8,29.87,SSE,158,6.5,7.8,47,0.00,,,0.00,WUHU216HW,2013-11-15 20:57:00,
2013-11-15 15:02:00,60.1,39.8,29.87,South,180,6.9,11.0,47,0.00,,,0.00,WUHU216HW,2013-11-15 21:02:00,
2013-11-15 15:07:00,60.1,39.8,29.86,SSW,203,5.1,11.0,47,0.00,,,0.00,WUHU216HW,2013-11-15 21:07:00,
2013-11-15 15:12:00,59.9,39.6,29.86,SW,225,6.7,8.3,47,0.00,,,0.00,WUHU216HW,2013-11-15 21:12:00,
2013-11-15 15:17:00,59.6,40.4,29.86,SSW,203,3.8,8.9,49,0.00,,,0.00,WUHU216HW,2013-11-15 21:17:00,
2013-11-15 15:22:00,60.3,39.9,29.86,SE,135,6.9,10.1,47,0.00,,,0.00,WUHU216HW,2013-11-15 21:22:00,
2013-11-15 15:27:00,59.8,40.6,29.86,SSW,203,6.7,10.1,49,0.00,,,0.00,WUHU216HW,2013-11-15 21:27:00,
2013-11-15 15:32:00,60.3,40.5,29.85,South,180,4.3,8.7,48,0.00,,,0.00,WUHU216HW,2013-11-15 21:32:00,
2013-11-15 15:37:00,61.0,40.6,29.85,SSE,158,5.6,6.7,47,0.00,,,0.00,WUHU216HW,2013-11-15 21:37:00,
2013-11-15 15:42:00,60.8,40.4,29.85,ENE,68,4.3,7.2,47,0.00,,,0.00,WUHU216HW,2013-11-15 21:42:00,
2013-11-15 15:47:00,60.1,40.3,29.85,South,180,8.5,10.7,48,0.00,,,0.00,WUHU216HW,2013-11-15 21:47:00,
2013-11-15 15:52:00,59.9,40.8,29.84,SSE,158,9.4,10.7,49,0.00,,,0.00,WUHU216HW,2013-11-15 21:52:00,
2013-11-15 15:57:00,59.8,40.6,29.84,SSW,203,7.4,9.8,49,0.00,,,0.00,WUHU216HW,2013-11-15 21:57:00,
2013-11-15 16:02:00,59.8,40.6,29.84,South,180,6.7,9.8,49,0.00,,,0.00,WUHU216HW,2013-11-15 22:02:00,
2013-11-15 16:07:00,59.6,40.4,29.84,SE,135,7.8,9.2,49,0.00,,,0.00,WUHU216HW,2013-11-15 22:07:00,
2013-11-15 16:12:00,59.2,40.7,29.84,SE,135,4.7,7.8,50,0.00,,,0.00,WUHU216HW,2013-11-15 22:12:00,
2013-11-15 16:17:00,58.7,40.7,29.84,South,180,3.8,6.9,51,0.00,,,0.00,WUHU216HW,2013-11-15 22:17:00,
2013-11-15 16:22:00,58.0,40.5,29.84,South,180,3.8,7.4,52,0.00,,,0.00,WUHU216HW,2013-11-15 22:22:00,
2013-11-15 16:27:00,57.2,40.3,29.84,South,180,4.7,7.4,53,0.00,,,0.00,WUHU216HW,2013-11-15 22:27:00,
2013-11-15 16:32:00,57.2,40.8,29.83,SSE,158,4.9,6.0,54,0.00,,,0.00,WUHU216HW,2013-11-15 22:32:00,
2013-11-15 16:37:00,57.1,40.6,29.83,South,180,4.0,7.4,54,0.00,,,0.00,WUHU216HW,2013-11-15 22:37:00,
2013-11-15 16:42:00,56.9,40.4,29.83,SE,135,6.0,7.4,54,0.00,,,0.00,WUHU216HW,2013-11-15 22:42:00,
2013-11-15 16:47:00,56.5,40.1,29.82,SE,135,4.0,6.3,54,0.00,,,0.00,WUHU216HW,2013-11-15 22:47:00,
2013-11-15 16:52:00,56.2,40.1,29.82,SE,135,3.4,5.4,55,0.00,,,0.00,WUHU216HW,2013-11-15 22:52:00,
2013-11-15 16:57:00,55.6,40.1,29.82,SE,135,6.0,6.3,56,0.00,,,0.00,WUHU216HW,2013-11-15 22:57:00,
2013-11-15 17:02:00,55.1,40.5,29.82,South,180,3.1,6.3,58,0.00,,,0.00,WUHU216HW,2013-11-15 23:02:00,
2013-11-15 17:07:00,54.7,40.7,29.83,South,180,4.5,6.3,59,0.00,,,0.00,WUHU216HW,2013-11-15 23:07:00,
2013-11-15 17:12:00,54.5,41.0,29.83,SSE,158,5.1,6.5,60,0.00,,,0.00,WUHU216HW,2013-11-15 23:12:00,
2013-11-15 17:17:00,54.2,41.1,29.83,South,180,4.0,6.5,61,0.00,,,0.00,WUHU216HW,2013-11-15 23:17:00,
2013-11-15 17:22:00,53.8,41.1,29.83,South,180,4.5,5.4,62,0.00,,,0.00,WUHU216HW,2013-11-15 23:22:00,
2013-11-15 17:27:00,53.6,41.0,29.83,SE,135,5.6,6.9,62,0.00,,,0.00,WUHU216HW,2013-11-15 23:27:00,
2013-11-15 17:32:00,53.5,41.6,29.83,ESE,113,4.0,6.9,64,0.00,,,0.00,WUHU216HW,2013-11-15 23:32:00,
2013-11-15 17:37:00,53.3,41.0,29.83,SSE,158,7.6,7.6,63,0.00,,,0.00,WUHU216HW,2013-11-15 23:37:00,
2013-11-15 17:42:00,53.3,41.4,29.83,SSE,158,4.7,7.6,64,0.00,,,0.00,WUHU216HW,2013-11-15 23:42:00,
2013-11-15 17:47:00,52.9,41.1,29.83,SSE,158,4.0,6.5,64,0.00,,,0.00,WUHU216HW,2013-11-15 23:47:00,
2013-11-15 17:52:00,52.7,40.9,29.83,SE,135,4.3,5.4,64,0.00,,,0.00,WUHU216HW,2013-11-15 23:52:00,
2013-11-15 17:57:00,52.4,41.0,29.83,SE,135,4.3,5.6,65,0.00,,,0.00,WUHU216HW,2013-11-15 23:57:00,
2013-11-15 18:02:00,52.2,41.1,29.83,SE,135,4.9,5.6,66,0.00,,,0.00,WUHU216HW,2013-11-16 00:02:00,
2013-11-15 18:07:00,52.0,41.0,29.83,SE,135,4.9,7.4,66,0.00,,,0.00,WUHU216HW,2013-11-16 00:07:00,
2013-11-15 18:12:00,51.8,41.2,29.83,SE,135,5.4,7.4,67,0.00,,,0.00,WUHU216HW,2013-11-16 00:12:00,
2013-11-15 18:17:00,51.7,41.5,29.83,SE,135,6.3,6.5,68,0.00,,,0.00,WUHU216HW,2013-11-16 00:17:00,
2013-11-15 18:22:00,51.5,41.3,29.83,SE,135,5.4,6.5,68,0.00,,,0.00,WUHU216HW,2013-11-16 00:22:00,
2013-11-15 18:27:00,51.3,41.1,29.82,ESE,113,4.0,6.7,68,0.00,,,0.00,WUHU216HW,2013-11-16 00:27:00,
2013-11-15 18:32:00,51.1,41.0,29.82,SSE,158,6.3,6.7,68,0.00,,,0.00,WUHU216HW,2013-11-16 00:32:00,
2013-11-15 18:37:00,50.8,40.6,29.82,ESE,113,5.8,6.3,68,0.00,,,0.00,WUHU216HW,2013-11-16 00:37:00,
2013-11-15 18:42:00,50.8,40.6,29.82,ESE,113,5.1,7.2,68,0.00,,,0.00,WUHU216HW,2013-11-16 00:42:00,
2013-11-15 18:47:00,50.4,41.0,29.82,ESE,113,5.8,7.2,70,0.00,,,0.00,WUHU216HW,2013-11-16 00:47:00,
2013-11-15 18:52:00,50.4,41.0,29.82,SE,135,5.1,6.3,70,0.00,,,0.00,WUHU216HW,2013-11-16 00:52:00,
2013-11-15 18:57:00,50.2,41.2,29.82,SE,135,6.5,6.5,71,0.00,,,0.00,WUHU216HW,2013-11-16 00:57:00,
2013-11-15 19:02:00,50.0,41.4,29.82,SE,135,4.0,6.5,72,0.00,,,0.00,WUHU216HW,2013-11-16 01:02:00,
2013-11-15 19:07:00,49.9,41.2,29.81,SE,135,7.2,7.6,72,0.00,,,0.00,WUHU216HW,2013-11-16 01:07:00,
2013-11-15 19:13:00,49.7,41.1,29.81,ESE,113,6.5,7.6,72,0.00,,,0.00,WUHU216HW,2013-11-16 01:13:00,
2013-11-15 19:18:00,49.7,41.3,29.81,SE,135,7.2,9.2,73,0.00,,,0.00,WUHU216HW,2013-11-16 01:18:00,
2013-11-15 19:23:00,49.7,41.7,29.81,SE,135,10.1,10.1,74,0.00,,,0.00,WUHU216HW,2013-11-16 01:23:00,
2013-11-15 19:28:00,49.7,41.7,29.81,ESE,113,5.1,11.4,74,0.00,,,0.00,WUHU216HW,2013-11-16 01:28:00,
2013-11-15 19:33:00,49.5,41.5,29.80,ESE,113,6.7,11.4,74,0.00,,,0.00,WUHU216HW,2013-11-16 01:33:00,
2013-11-15 19:38:00,49.5,41.5,29.80,SE,135,7.4,9.4,74,0.00,,,0.00,WUHU216HW,2013-11-16 01:38:00,
2013-11-15 19:43:00,49.7,41.7,29.80,SSE,158,6.9,9.4,74,0.00,,,0.00,WUHU216HW,2013-11-16 01:43:00,
2013-11-15 19:48:00,49.7,41.7,29.80,South,180,6.9,11.0,74,0.00,,,0.00,WUHU216HW,2013-11-16 01:48:00,
2013-11-15 19:53:00,49.7,41.7,29.81,SSE,158,6.7,11.0,74,0.00,,,0.00,WUHU216HW,2013-11-16 01:53:00,
2013-11-15 19:58:00,49.5,41.5,29.80,SSE,158,7.6,8.5,74,0.00,,,0.00,WUHU216HW,2013-11-16 01:58:00,
2013-11-15 20:03:00,49.3,41.7,29.80,South,180,6.5,7.6,75,0.00,,,0.00,WUHU216HW,2013-11-16 02:03:00,
2013-11-15 20:08:00,49.3,41.3,29.80,SE,135,6.7,7.4,74,0.00,,,0.00,WUHU216HW,2013-11-16 02:08:00,
2013-11-15 20:13:00,49.1,41.5,29.80,SSE,158,5.4,7.4,75,0.00,,,0.00,WUHU216HW,2013-11-16 02:13:00,
2013-11-15 20:18:00,49.0,41.3,29.80,SSE,158,6.3,8.5,75,0.00,,,0.00,WUHU216HW,2013-11-16 02:18:00,
2013-11-15 20:23:00,49.0,41.3,29.80,SE,135,4.7,10.1,75,0.00,,,0.00,WUHU216HW,2013-11-16 02:23:00,
2013-11-15 20:28:00,48.8,41.1,29.80,SE,135,7.4,10.1,75,0.00,,,0.00,WUHU216HW,2013-11-16 02:28:00,
2013-11-15 20:33:00,48.8,41.1,29.79,ESE,113,5.4,8.7,75,0.00,,,0.00,WUHU216HW,2013-11-16 02:33:00,
2013-11-15 20:38:00,48.6,41.3,29.79,SE,135,4.9,7.6,76,0.00,,,0.00,WUHU216HW,2013-11-16 02:38:00,
2013-11-15 20:43:00,48.6,41.3,29.79,SE,135,7.6,7.6,76,0.00,,,0.00,WUHU216HW,2013-11-16 02:43:00,
2013-11-15 20:48:00,48.6,41.7,29.79,SSE,158,7.2,7.8,77,0.00,,,0.00,WUHU216HW,2013-11-16 02:48:00,
2013-11-15 20:53:00,48.6,41.7,29.79,SSE,158,9.8,9.8,77,0.00,,,0.00,WUHU216HW,2013-11-16 02:53:00,
2013-11-15 20:58:00,49.0,41.7,29.79,SSE,158,6.3,9.8,76,0.00,,,0.00,WUHU216HW,2013-11-16 02:58:00,
2013-11-15 21:03:00,49.0,41.7,29.78,SE,135,8.5,8.7,76,0.00,,,0.00,WUHU216HW,2013-11-16 03:03:00,
2013-11-15 21:08:00,49.3,42.0,29.78,SSE,158,4.0,10.1,76,0.00,,,0.00,WUHU216HW,2013-11-16 03:08:00,
2013-11-15 21:13:00,49.5,42.2,29.78,SE,135,6.9,15.0,76,0.00,,,0.00,WUHU216HW,2013-11-16 03:13:00,
2013-11-15 21:18:00,49.9,42.2,29.78,SE,135,8.3,15.0,75,0.00,,,0.00,WUHU216HW,2013-11-16 03:18:00,
2013-11-15 21:23:00,50.0,42.4,29.77,SSW,203,9.8,10.1,75,0.00,,,0.00,WUHU216HW,2013-11-16 03:23:00,
2013-11-15 21:28:00,50.2,42.6,29.77,SSW,203,9.8,10.7,75,0.00,,,0.00,WUHU216HW,2013-11-16 03:28:00,
2013-11-15 21:33:00,50.4,42.8,29.78,SSE,158,8.1,11.2,75,0.00,,,0.00,WUHU216HW,2013-11-16 03:33:00,
2013-11-15 21:38:00,50.4,42.8,29.78,SSE,158,10.7,12.8,75,0.00,,,0.00,WUHU216HW,2013-11-16 03:38:00,
2013-11-15 21:43:00,50.4,42.8,29.78,South,180,8.3,12.8,75,0.00,,,0.00,WUHU216HW,2013-11-16 03:43:00,
2013-11-15 21:48:00,50.4,42.8,29.78,SSE,158,8.5,12.1,75,0.00,,,0.00,WUHU216HW,2013-11-16 03:48:00,
2013-11-15 21:53:00,50.4,42.8,29.78,SE,135,11.2,12.1,75,0.00,,,0.00,WUHU216HW,2013-11-16 03:53:00,
2013-11-15 21:58:00,50.4,42.8,29.77,SSE,158,8.9,13.4,75,0.00,,,0.00,WUHU216HW,2013-11-16 03:58:00,
2013-11-15 22:03:00,50.2,42.6,29.78,SE,135,13.4,13.4,75,0.00,,,0.00,WUHU216HW,2013-11-16 04:03:00,
2013-11-15 22:08:00,50.0,42.4,29.78,SSE,158,6.9,13.4,75,0.00,,,0.00,WUHU216HW,2013-11-16 04:08:00,
2013-11-15 22:13:00,50.0,42.8,29.78,SSE,158,5.4,10.5,76,0.00,,,0.00,WUHU216HW,2013-11-16 04:13:00,
2013-11-15 22:18:00,50.0,42.8,29.78,SSE,158,8.5,12.1,76,0.00,,,0.00,WUHU216HW,2013-11-16 04:18:00,
2013-11-15 22:23:00,50.0,42.8,29.78,SSE,158,7.4,12.1,76,0.00,,,0.00,WUHU216HW,2013-11-16 04:23:00,
2013-11-15 22:28:00,50.0,42.8,29.78,South,180,8.1,13.0,76,0.00,,,0.00,WUHU216HW,2013-11-16 04:28:00,
2013-11-15 22:33:00,50.0,42.8,29.78,South,180,6.5,13.0,76,0.00,,,0.00,WUHU216HW,2013-11-16 04:33:00,
2013-11-15 22:38:00,49.9,42.9,29.78,SSW,203,4.3,9.8,77,0.00,,,0.00,WUHU216HW,2013-11-16 04:38:00,
2013-11-15 22:43:00,49.9,43.2,29.78,South,180,4.3,9.8,78,0.00,,,0.00,WUHU216HW,2013-11-16 04:43:00,
2013-11-15 22:49:00,49.9,43.2,29.78,South,180,4.0,8.3,78,0.00,,,0.00,WUHU216HW,2013-11-16 04:49:00,
2013-11-15 22:54:00,49.7,43.0,29.78,SSE,158,5.6,8.3,78,0.00,,,0.00,WUHU216HW,2013-11-16 04:54:00,
2013-11-15 22:59:00,49.5,42.8,29.78,SSE,158,6.9,7.6,78,0.00,,,0.00,WUHU216HW,2013-11-16 04:59:00,
2013-11-15 23:01:00,49.5,43.2,29.78,South,180,6.3,7.6,79,0.00,,,0.00,WUHU216HW,2013-11-16 05:01:00,
2013-11-15 23:06:00,49.7,43.0,29.78,South,180,6.7,8.5,78,0.00,,,0.00,WUHU216HW,2013-11-16 05:06:00,
2013-11-15 23:11:00,49.5,43.2,29.78,South,180,10.7,10.7,79,0.00,,,0.00,WUHU216HW,2013-11-16 05:11:00,
2013-11-15 23:16:00,49.5,43.2,29.78,SSW,203,4.7,10.7,79,0.00,,,0.00,WUHU216HW,2013-11-16 05:16:00,
2013-11-15 23:21:00,49.3,43.4,29.78,South,180,4.9,10.5,80,0.00,,,0.00,WUHU216HW,2013-11-16 05:21:00,
2013-11-15 23:26:00,49.1,43.2,29.78,South,180,7.4,7.6,80,0.00,,,0.00,WUHU216HW,2013-11-16 05:26:00,
2013-11-15 23:31:00,49.0,43.0,29.78,South,180,6.7,7.6,80,0.00,,,0.00,WUHU216HW,2013-11-16 05:31:00,
2013-11-15 23:36:00,49.0,43.4,29.79,SSW,203,4.9,7.6,81,0.00,,,0.00,WUHU216HW,2013-11-16 05:36:00,
2013-11-15 23:41:00,48.8,43.2,29.78,SW,225,5.4,7.6,81,0.00,,,0.00,WUHU216HW,2013-11-16 05:41:00,
2013-11-15 23:46:00,48.8,43.2,29.78,South,180,6.3,6.9,81,0.00,,,0.00,WUHU216HW,2013-11-16 05:46:00,
2013-11-15 23:51:00,48.8,43.5,29.78,SSW,203,6.9,6.9,82,0.00,,,0.00,WUHU216HW,2013-11-16 05:51:00,
2013-11-15 23:56:00,48.8,43.5,29.79,South,180,4.5,6.9,82,0.00,,,0.00,WUHU216HW,2013-11-16 05:56:00,